• In Uzbekistan
  • List of Countries
  • For 7 days
  • Water Temperature
  • Satellite Maps
  • Weather Map
  • Weather Widgets
  • user-avatar
    Login

    Hourly Weather Kukvaz

    Today, 17 August, Friday

    Time Temperature Precipitation Wind Pressure Humidity
    00:00 +14°C° 0 mm 2 mps 621 mmHg 61%
    01:00 +14°C° 0 mm 2 mps 621 mmHg 60%
    02:00 +14°C° 0 mm 2 mps 621 mmHg 59%
    03:00 +14°C° 0 mm 2 mps 620 mmHg 58%
    04:00 +14°C° 0 mm 2 mps 620 mmHg 58%
    05:00 +15°C° 0 mm 2 mps 621 mmHg 58%
    06:00 +15°C° 0 mm 2 mps 621 mmHg 58%
    07:00 +17°C° 0 mm 2 mps 621 mmHg 53%
    08:00 +20°C° 0 mm 2 mps 622 mmHg 48%
    09:00 +23°C° 0 mm 2 mps 623 mmHg 43%
    10:00 +24°C° 0 mm 2 mps 623 mmHg 42%
    11:00 +24°C° 0 mm 2 mps 623 mmHg 42%
    12:00 +25°C° 0 mm 3 mps 623 mmHg 41%
    13:00 +25°C° 0.1 mm 3 mps 623 mmHg 43%
    14:00 +25°C° 0.1 mm 3 mps 622 mmHg 44%
    15:00 +25°C° 0.1 mm 3 mps 622 mmHg 45%
    16:00 +23°C° 0.1 mm 2 mps 622 mmHg 50%
    17:00 +21°C° 0.1 mm 2 mps 621 mmHg 54%
    18:00 +21°C° 0.1 mm 1 mps 621 mmHg 58%
    19:00 +20°C° 0 mm 1 mps 620 mmHg 62%
    20:00 +18°C° 0 mm 1 mps 620 mmHg 65%
    21:00 +16°C° 0 mm 1 mps 619 mmHg 69%
    22:00 +16°C° 0 mm 1 mps 619 mmHg 68%
    23:00 +16°C° 0 mm 1 mps 619 mmHg 68%

    Tomorrow, 18 August, Saturday

    Time Temperature Precipitation Wind Pressure Humidity
    00:00 +16°C° 0 mm 1 mps 619 mmHg 67%
    01:00 +15°C° 0 mm 1 mps 619 mmHg 67%
    02:00 +15°C° 0 mm 1 mps 618 mmHg 66%
    03:00 +15°C° 0 mm 1 mps 618 mmHg 66%
    04:00 +16°C° 0 mm 1 mps 618 mmHg 65%
    05:00 +16°C° 0 mm 1 mps 619 mmHg 65%
    06:00 +16°C° 0 mm 1 mps 619 mmHg 65%
    07:00 +18°C° 0.1 mm 2 mps 619 mmHg 59%
    08:00 +20°C° 0.1 mm 2 mps 620 mmHg 53%
    09:00 +23°C° 0.1 mm 2 mps 621 mmHg 48%
    10:00 +22°C° 0.3 mm 3 mps 621 mmHg 47%
    11:00 +24°C° 0.3 mm 3 mps 621 mmHg 47%
    12:00 +24°C° 0.3 mm 3 mps 621 mmHg 46%
    13:00 +24°C° 0.8 mm 3 mps 621 mmHg 47%
    14:00 +24°C° 0.8 mm 3 mps 620 mmHg 48%
    15:00 +22°C° 0.8 mm 3 mps 620 mmHg 49%
    16:00 +21°C° 0.5 mm 3 mps 620 mmHg 53%
    17:00 +20°C° 0.5 mm 2 mps 619 mmHg 57%
    18:00 +19°C° 0.5 mm 2 mps 619 mmHg 61%
    19:00 +18°C° 0.1 mm 2 mps 619 mmHg 65%
    20:00 +17°C° 0.1 mm 2 mps 619 mmHg 69%
    21:00 +15°C° 0.1 mm 2 mps 618 mmHg 74%
    22:00 +15°C° 0 mm 2 mps 618 mmHg 74%
    23:00 +15°C° 0 mm 2 mps 619 mmHg 75%

    Day after tomorrow, 19 August, Sunday

    Time Temperature Precipitation Wind Pressure Humidity
    00:00 +15°C° 0 mm 2 mps 619 mmHg 75%
    01:00 +15°C° 0 mm 2 mps 618 mmHg 76%
    02:00 +14°C° 0 mm 2 mps 618 mmHg 77%
    03:00 +14°C° 0 mm 2 mps 618 mmHg 78%
    04:00 +14°C° 0.2 mm 2 mps 618 mmHg 77%
    05:00 +14°C° 0.2 mm 2 mps 618 mmHg 76%
    06:00 +15°C° 0.2 mm 2 mps 619 mmHg 75%
    07:00 +15°C° 0.3 mm 2 mps 619 mmHg 72%
    08:00 +16°C° 0.3 mm 2 mps 619 mmHg 68%
    09:00 +17°C° 0.3 mm 2 mps 620 mmHg 65%
    10:00 +17°C° 0.2 mm 2 mps 620 mmHg 63%
    11:00 +17°C° 0.2 mm 2 mps 620 mmHg 61%
    12:00 +18°C° 0.2 mm 2 mps 620 mmHg 59%
    13:00 +18°C° 0.1 mm 2 mps 620 mmHg 58%
    14:00 +18°C° 0.1 mm 2 mps 620 mmHg 58%
    15:00 +19°C° 0.1 mm 2 mps 620 mmHg 58%
    16:00 +18°C° 0.1 mm 2 mps 620 mmHg 63%
    17:00 +17°C° 0.1 mm 2 mps 620 mmHg 69%
    18:00 +16°C° 0.1 mm 2 mps 620 mmHg 75%
    19:00 +15°C° 0.1 mm 2 mps 620 mmHg 78%
    20:00 +14°C° 0.1 mm 2 mps 620 mmHg 82%
    21:00 +14°C° 0.1 mm 2 mps 620 mmHg 85%
    22:00 +13°C° 0.1 mm 1 mps 620 mmHg 86%
    23:00 +13°C° 0.1 mm 1 mps 620 mmHg 87%

    20 August, Monday

    Time Temperature Precipitation Wind Pressure Humidity
    00:00 +13°C° 0.1 mm 1 mps 620 mmHg 88%
    01:00 +13°C° 0.1 mm 1 mps 620 mmHg 88%
    02:00 +12°C° 0.1 mm 1 mps 620 mmHg 88%
    03:00 +12°C° 0.1 mm 1 mps 620 mmHg 88%
    04:00 +12°C° 0.4 mm 1 mps 620 mmHg 88%
    05:00 +12°C° 0.4 mm 1 mps 621 mmHg 87%
    06:00 +12°C° 0.4 mm 1 mps 621 mmHg 87%
    07:00 +13°C° 0.3 mm 1 mps 621 mmHg 81%
    08:00 +14°C° 0.3 mm 1 mps 622 mmHg 76%
    09:00 +15°C° 0.3 mm 1 mps 622 mmHg 70%
    10:00 +16°C° 0 mm 2 mps 623 mmHg 66%
    11:00 +17°C° 0 mm 2 mps 623 mmHg 62%
    12:00 +18°C° 0 mm 3 mps 623 mmHg 57%
    13:00 +18°C° 0 mm 3 mps 623 mmHg 56%
    14:00 +18°C° 0 mm 3 mps 623 mmHg 56%
    15:00 +19°C° 0 mm 3 mps 623 mmHg 55%
    16:00 +18°C° 0 mm 3 mps 623 mmHg 59%
    17:00 +17°C° 0 mm 2 mps 623 mmHg 63%
    18:00 +16°C° 0 mm 2 mps 622 mmHg 67%
    19:00 +15°C° 0 mm 2 mps 622 mmHg 71%
    20:00 +13°C° 0 mm 1 mps 622 mmHg 76%
    21:00 +12°C° 0 mm 1 mps 622 mmHg 81%
    22:00 +12°C° 0 mm 1 mps 622 mmHg 80%
    23:00 +12°C° 0 mm 1 mps 622 mmHg 80%

    21 August, Tuesday

    Time Temperature Precipitation Wind Pressure Humidity
    00:00 +12°C° 0 mm 1 mps 621 mmHg 80%
    01:00 +12°C° 0 mm 1 mps 621 mmHg 79%
    02:00 +11°C° 0 mm 1 mps 621 mmHg 78%
    03:00 +11°C° 0 mm 1 mps 621 mmHg 77%
    04:00 +12°C° 0 mm 1 mps 621 mmHg 75%
    05:00 +12°C° 0 mm 1 mps 622 mmHg 73%
    06:00 +12°C° 0 mm 1 mps 622 mmHg 70%
    07:00 +15°C° 0 mm 2 mps 623 mmHg 63%
    08:00 +17°C° 0 mm 2 mps 624 mmHg 56%
    09:00 +19°C° 0 mm 2 mps 624 mmHg 50%
    10:00 +19°C° 0 mm 3 mps 624 mmHg 48%
    11:00 +20°C° 0 mm 3 mps 625 mmHg 47%
    12:00 +21°C° 0 mm 3 mps 625 mmHg 46%
    13:00 +21°C° 0 mm 3 mps 624 mmHg 47%
    14:00 +21°C° 0 mm 3 mps 624 mmHg 48%
    15:00 +21°C° 0 mm 3 mps 624 mmHg 49%
    16:00 +20°C° 0 mm 3 mps 624 mmHg 54%
    17:00 +18°C° 0 mm 2 mps 623 mmHg 59%
    18:00 +17°C° 0 mm 2 mps 623 mmHg 64%
    19:00 +16°C° 0 mm 2 mps 623 mmHg 67%
    20:00 +15°C° 0 mm 1 mps 622 mmHg 71%
    21:00 +13°C° 0 mm 1 mps 622 mmHg 74%
    22:00 +13°C° 0 mm 1 mps 622 mmHg 72%
    23:00 +13°C° 0 mm 1 mps 622 mmHg 71%

    22 August, Wednesday

    Time Temperature Precipitation Wind Pressure Humidity
    00:00 +13°C° 0 mm 1 mps 622 mmHg 69%
    01:00 +13°C° 0 mm 1 mps 622 mmHg 67%
    02:00 +12°C° 0 mm 1 mps 622 mmHg 66%
    03:00 +12°C° 0 mm 1 mps 621 mmHg 64%
    04:00 +13°C° 0 mm 1 mps 622 mmHg 62%
    05:00 +13°C° 0 mm 1 mps 622 mmHg 61%
    06:00 +13°C° 0 mm 1 mps 622 mmHg 59%
    07:00 +16°C° 0 mm 1 mps 623 mmHg 53%
    08:00 +18°C° 0 mm 2 mps 624 mmHg 47%
    09:00 +20°C° 0 mm 2 mps 625 mmHg 42%
    10:00 +20°C° 0 mm 2 mps 625 mmHg 41%
    11:00 +21°C° 0 mm 3 mps 625 mmHg 40%
    12:00 +22°C° 0 mm 3 mps 625 mmHg 39%
    13:00 +22°C° 0.1 mm 3 mps 625 mmHg 40%
    14:00 +22°C° 0.1 mm 3 mps 625 mmHg 42%
    15:00 +21°C° 0.1 mm 3 mps 624 mmHg 43%
    16:00 +20°C° 0 mm 3 mps 624 mmHg 47%
    17:00 +19°C° 0 mm 2 mps 624 mmHg 51%
    18:00 +18°C° 0 mm 2 mps 624 mmHg 55%
    19:00 +16°C° 0 mm 2 mps 623 mmHg 58%
    20:00 +15°C° 0 mm 1 mps 623 mmHg 60%
    21:00 +14°C° 0 mm 1 mps 623 mmHg 63%
    22:00 +14°C° 0 mm 1 mps 623 mmHg 63%
    23:00 +13°C° 0 mm 1 mps 623 mmHg 62%
    Show more